Torna al catalogo

FENGYUN 1C DEB

AttivoSSO
NORAD 31766·DEBRIS·🇨🇳 China

Lanciato May 10, 1999 da Taiyuan Satellite Launch Center

Loading…

Prossimi Passaggi (prossime 24 ore)

TLE

AggiornatoSource: Space-Track

Epoca: Sep 14, 2026, 05:11 UTC

1 31766U 99025CFR 26257.21609234  .00000195  00000-0  14356-3 0  9994
2 31766  98.8296 252.6780 0073290 238.2762 121.1248 14.05406778679551

Traccia FENGYUN 1C DEB in tempo reale con AllMySat

Download on the App Store